#timestamp,LO_Frequency,Hit,StdDev 
1613764815.6,286046998.3,N
1613764835.4,286046997.3,N
1613764855.3,286046996.0,N
1613764875.1,286046997.7,N
1613764895.8,286046997.4,N
1613764915.7,286046994.5,N
1613764935.5,286046991.9,Y
1613764955.4,286046994.7,P
1613764975.2,286046996.2,N
1613764995.0,286046995.6,N
1613764995.9,286046995.6,N
1613765015.8,286046993.7,Y
1613765035.6,286046996.1,P
1613765055.4,286046993.3,P
1613765075.3,286046994.4,P
1613765095.1,286046990.6,Y
1613765115.9,286046995.0,P
1613765135.7,286046993.9,P
1613765155.5,286046994.7,P
1613765175.4,286046991.9,Y
1613765195.2,286046999.1,P
1613765215.0,286046996.6,N
1613765216.0,286046996.6,N
1613765235.8,286046995.7,N
1613765255.6,286046995.8,N
1613765275.5,286046992.2,Y
1613765295.3,286046995.5,P
1613765315.1,286046995.1,P
1613765335.9,286046993.5,P
1613765355.7,286046993.8,Y
1613765375.6,286046999.0,P
1613765395.4,286046997.4,N
1613765415.2,286047000.6,N
1613765435.1,286047000.4,N
1613765436.0,286047000.4,N
1613765455.8,286047001.1,N
1613765475.6,286047005.7,N
1613765495.5,286047004.5,N
1613765515.3,286047005.8,N
1613765535.2,286047004.0,N
1613765555.9,286047007.3,N
1613765575.7,286047004.7,N
1613765595.6,286047007.5,N
1613765615.4,286047008.8,N
1613765635.2,286047009.0,N
1613765655.1,286047009.2,N
1613765656.0,286047009.2,N
1613765675.8,286047007.5,N
1613765695.7,286047005.2,N
1613765715.5,286047005.2,N
1613765735.3,286047005.6,N
1613765755.2,286047006.7,N
1613765775.0,286047006.8,N
1613765775.9,286047006.8,N
1613765795.8,286047010.6,N
1613765815.6,286047011.6,N
1613765835.4,286047013.1,Y
1613765855.3,286047010.8,P
1613765875.1,286047008.5,N
1613765895.8,286047009.1,P
1613765915.7,286047004.5,N
1613765935.5,286047005.0,N
1613765955.4,286047005.6,N
1613765975.2,286047003.1,N
1613765995.0,286047003.1,N
1613765995.9,286047003.1,N
1613766015.8,286047003.4,N
1613766035.6,286047005.5,N
1613766055.5,286047004.6,N
1613766075.3,286047004.5,N
1613766095.1,286047003.6,N
1613766115.9,286047007.5,Y
1613766135.7,286047002.0,P
1613766155.5,286047002.5,N
1613766175.4,286047005.5,P
1613766195.2,286047004.2,N
1613766215.1,286047004.1,N
1613766216.0,286047004.1,Y
1613766235.8,286046999.2,P
1613766255.6,286046997.7,N
1613766275.5,286046996.9,N
1613766295.3,286047011.9,Y
1613766315.2,286046998.1,P
1613766335.9,286046996.7,P
1613766355.7,286046996.7,N
1613766375.6,286046999.2,N
1613766395.4,286046997.0,N
1613766415.2,286046995.1,Y
1613766435.1,286046999.2,P
1613766436.0,286046999.2,N
1613766455.8,286046996.9,P
1613766475.7,286046996.6,Y
1613766495.5,286046996.5,P
1613766515.3,286046997.6,N
1613766535.2,286046997.7,P
1613766555.0,286046997.2,Y
1613766555.9,286046997.2,P
1613766575.8,286047002.3,P
1613766595.6,286047002.1,N
1613766615.4,286047000.2,N
1613766665.3,286046999.5,E
1613766675.2,286046999.2,N
1613766695.1,286047000.6,P
1613766696.0,286047000.6,N
1613766715.8,286047001.0,N
1613766735.6,286047000.7,N
1613766755.5,286047000.4,N
1613766775.3,286047002.2,Y
1613766795.1,286047000.0,P
1613766815.9,286046998.5,P
1613766835.7,286047002.6,P
1613766855.6,286046999.7,N
1613766875.4,286047003.1,N
1613766895.2,286047007.5,Y
1613766915.1,286047005.5,P
1613766916.0,286047005.5,N
1613766935.8,286047004.4,N
1613766955.6,286047002.1,N
1613766975.5,286047002.2,N
1613766995.3,286047002.6,N
1613767015.2,286047004.2,N
1613767035.9,286047001.3,N
1613767055.7,286047002.4,N
1613767075.6,286047000.4,N
1613767095.4,286047000.3,N
1613767115.2,286047003.8,N
1613767135.1,286047005.7,Y
1613767136.0,286047005.7,P
1613767155.8,286047000.4,N
1613767175.7,286046998.8,N
1613767195.5,286046996.8,N
1613767215.3,286047001.0,N
1613767235.2,286046997.0,N
1613767255.0,286046995.1,N
1613767255.9,286046995.1,N
1613767275.7,286046994.1,N
1613767295.6,286046994.2,N
1613767315.4,286046995.2,N
1613767335.3,286046995.7,N
1613767355.1,286046994.7,N
1613767356.0,286046994.7,N
1613767375.8,286046994.4,N
1613767395.7,286046995.6,N
1613767415.5,286046993.3,N
1613767435.3,286046994.5,N
1613767455.2,286046992.1,N
1613767475.0,286046997.9,N
1613767475.9,286046997.9,N
1613767495.8,286046996.8,N
1613767515.6,286047002.8,N
1613767535.4,286047000.4,N
1613767555.3,286046999.1,N
1613767575.1,286046995.3,N
1613767595.8,286046997.6,N
1613767615.7,286046998.7,N
1613767635.5,286046998.2,N
1613767655.4,286046997.5,N
1613767675.2,286046995.6,N
1613767695.0,286046993.7,N
1613767695.9,286046993.7,N
1613767715.8,286046995.8,N
1613767735.6,286046993.4,N
1613767755.4,286046995.9,N
1613767775.3,286046995.7,N
1613767795.1,286046996.2,N
1613767815.9,286046995.0,N
1613767835.7,286046998.5,N
1613767855.5,286047011.9,Y
1613767875.4,286046999.7,P
1613767895.2,286046999.7,N
1613767915.0,286047002.7,N
1613767915.9,286047002.7,N
1613767935.8,286047001.1,N
1613767955.6,286046998.7,N
1613767975.5,286047000.1,N
1613767995.3,286047001.2,N
1613768015.1,286047003.9,N
1613768035.9,286047007.3,Y
1613768055.7,286047009.4,P
1613768075.5,286047012.0,N
1613768095.4,286047006.5,N
1613768115.2,286047004.9,N
1613768135.1,286047002.9,N
1613768136.0,286047002.9,N
1613768155.8,286047005.4,N
1613768175.6,286047005.5,N
1613768195.5,286047003.9,N
1613768215.3,286047004.7,N
1613768235.1,286047010.7,Y
1613768255.9,286047001.3,P
1613768275.7,286047005.5,N
1613768295.6,286047007.6,P
1613768315.4,286047007.0,Y
1613768335.2,286047000.0,P
1613768355.1,286046999.0,N
1613768356.0,286046999.0,N
1613768375.8,286046998.9,N
1613768395.6,286046999.1,N
